PSCRJ SDRS-SBPC

Flight info

Callsign PSCRJ
Flight time 0h 49m
Altitude 4500
Route DCT 2227S04502W DCT 2222S04526W DCT 2217S04555W DCT 2158S04622W
Aircraft S76/L-SDFGR/S

Departure

Time 2026-05-07 22:13
Airport Resende Airport (SDRS)

Arrival

Time 2026-05-07 23:03
Airport Poços de Caldas - Embaixador Walther Moreira Salles Airport (SBPC)
Time Latitude Longitude Altitude Speed Heading
2026-05-07 22:06 -22.47654 -44.47649 1324 ft 0 kts 62°
2026-05-07 22:07 -22.47654 -44.47648 1324 ft 0 kts 62°
2026-05-07 22:11 -22.47654 -44.47647 1324 ft 0 kts 61°
2026-05-07 22:12 -22.47647 -44.47639 1342 ft 6 kts 60°
2026-05-07 22:12 -22.47571 -44.47645 1388 ft 12 kts 36°
2026-05-07 22:12 -22.47515 -44.47579 1817 ft 17 kts 317°
2026-05-07 22:13 -22.47429 -44.47509 2310 ft 16 kts 256°
2026-05-07 22:13 -22.47379 -44.47868 2874 ft 73 kts 274°
2026-05-07 22:13 -22.47183 -44.48490 3557 ft 102 kts 287°
2026-05-07 22:13 -22.47273 -44.49169 4380 ft 87 kts 236°
2026-05-07 22:14 -22.47716 -44.49343 5226 ft 52 kts 192°
2026-05-07 22:14 -22.48142 -44.49613 5573 ft 96 kts 204°
2026-05-07 22:14 -22.48671 -44.50298 5639 ft 138 kts 241°
2026-05-07 22:14 -22.48876 -44.51394 5267 ft 155 kts 266°
2026-05-07 22:15 -22.48869 -44.52562 4924 ft 157 kts 269°
2026-05-07 22:15 -22.48852 -44.53743 4569 ft 157 kts 270°
2026-05-07 22:15 -22.48807 -44.54852 4625 ft 143 kts 271°
2026-05-07 22:15 -22.48763 -44.55961 4570 ft 150 kts 271°
2026-05-07 22:16 -22.48727 -44.57086 4526 ft 150 kts 271°
2026-05-07 22:16 -22.48685 -44.58210 4509 ft 149 kts 271°
2026-05-07 22:16 -22.48643 -44.59330 4503 ft 149 kts 271°
2026-05-07 22:16 -22.48600 -44.60449 4501 ft 149 kts 271°
2026-05-07 22:17 -22.48557 -44.61568 4499 ft 149 kts 271°
2026-05-07 22:17 -22.48514 -44.62682 4500 ft 149 kts 271°
2026-05-07 22:17 -22.48470 -44.63808 4499 ft 149 kts 271°
2026-05-07 22:17 -22.48424 -44.64921 4500 ft 149 kts 271°
2026-05-07 22:18 -22.48381 -44.66046 4500 ft 149 kts 271°
2026-05-07 22:18 -22.48293 -44.68282 4501 ft 149 kts 271°
2026-05-07 22:18 -22.48250 -44.69379 4611 ft 139 kts 271°
2026-05-07 22:19 -22.48209 -44.70366 5103 ft 127 kts 271°
2026-05-07 22:19 -22.48170 -44.71325 5625 ft 135 kts 271°
2026-05-07 22:19 -22.48128 -44.72422 5519 ft 147 kts 271°
2026-05-07 22:19 -22.48081 -44.73528 5504 ft 147 kts 272°
2026-05-07 22:20 -22.48021 -44.74637 5501 ft 147 kts 272°
2026-05-07 22:20 -22.47960 -44.75744 5500 ft 148 kts 272°
2026-05-07 22:20 -22.47899 -44.76846 5500 ft 148 kts 272°
2026-05-07 22:20 -22.47837 -44.77956 5499 ft 147 kts 272°
2026-05-07 22:21 -22.47776 -44.79060 5499 ft 147 kts 272°
2026-05-07 22:21 -22.47717 -44.80160 5499 ft 147 kts 272°
2026-05-07 22:21 -22.47657 -44.81267 5500 ft 147 kts 272°
2026-05-07 22:21 -22.47597 -44.82376 5500 ft 148 kts 272°
2026-05-07 22:22 -22.47536 -44.83482 5501 ft 147 kts 272°
2026-05-07 22:22 -22.47459 -44.84582 5500 ft 148 kts 274°
2026-05-07 22:22 -22.47365 -44.85685 5501 ft 147 kts 274°
2026-05-07 22:22 -22.47270 -44.86791 5500 ft 147 kts 274°
2026-05-07 22:23 -22.47173 -44.87897 5497 ft 147 kts 274°
2026-05-07 22:23 -22.47077 -44.88999 5500 ft 147 kts 274°
2026-05-07 22:23 -22.46978 -44.90098 5499 ft 147 kts 275°
2026-05-07 22:23 -22.46864 -44.91202 5501 ft 148 kts 275°
2026-05-07 22:24 -22.46737 -44.92301 5500 ft 147 kts 276°
2026-05-07 22:24 -22.46607 -44.93383 5582 ft 135 kts 277°
2026-05-07 22:24 -22.46491 -44.94318 6214 ft 118 kts 277°
2026-05-07 22:24 -22.46382 -44.95236 6648 ft 140 kts 276°
2026-05-07 22:25 -22.46256 -44.96328 6511 ft 145 kts 276°
2026-05-07 22:25 -22.46127 -44.97415 6502 ft 145 kts 276°
2026-05-07 22:25 -22.46001 -44.98495 6502 ft 145 kts 276°
2026-05-07 22:25 -22.45875 -44.99583 6500 ft 146 kts 276°
2026-05-07 22:26 -22.45753 -45.00660 6501 ft 145 kts 276°
2026-05-07 22:26 -22.45614 -45.01745 6502 ft 145 kts 278°
2026-05-07 22:26 -22.45419 -45.02815 6504 ft 145 kts 282°
2026-05-07 22:26 -22.45199 -45.03880 6504 ft 146 kts 282°
2026-05-07 22:27 -22.44979 -45.04950 6503 ft 146 kts 282°
2026-05-07 22:27 -22.44757 -45.06017 6504 ft 146 kts 282°
2026-05-07 22:27 -22.44534 -45.07085 6504 ft 146 kts 282°
2026-05-07 22:27 -22.44311 -45.08155 6503 ft 146 kts 282°
2026-05-07 22:28 -22.44089 -45.09219 6505 ft 146 kts 282°
2026-05-07 22:28 -22.43866 -45.10291 6504 ft 146 kts 282°
2026-05-07 22:28 -22.43643 -45.11358 6504 ft 146 kts 282°
2026-05-07 22:28 -22.43420 -45.12428 6505 ft 146 kts 282°
2026-05-07 22:29 -22.43197 -45.13494 6503 ft 146 kts 282°
2026-05-07 22:29 -22.42973 -45.14564 6504 ft 146 kts 282°
2026-05-07 22:29 -22.42749 -45.15635 6504 ft 146 kts 282°
2026-05-07 22:29 -22.42525 -45.16703 6503 ft 146 kts 282°
2026-05-07 22:30 -22.42302 -45.17769 6505 ft 146 kts 282°
2026-05-07 22:30 -22.42077 -45.18836 6504 ft 146 kts 282°
2026-05-07 22:30 -22.41852 -45.19908 6503 ft 146 kts 282°
2026-05-07 22:30 -22.41626 -45.20978 6504 ft 146 kts 282°
2026-05-07 22:31 -22.41401 -45.22046 6503 ft 146 kts 282°
2026-05-07 22:31 -22.41175 -45.23114 6503 ft 146 kts 282°
2026-05-07 22:31 -22.40949 -45.24183 6504 ft 146 kts 282°
2026-05-07 22:31 -22.40724 -45.25257 6503 ft 146 kts 282°
2026-05-07 22:32 -22.40500 -45.26320 6504 ft 146 kts 282°
2026-05-07 22:32 -22.40275 -45.27391 6503 ft 146 kts 282°
2026-05-07 22:32 -22.40050 -45.28461 6503 ft 146 kts 282°
2026-05-07 22:32 -22.39826 -45.29529 6503 ft 146 kts 282°
2026-05-07 22:33 -22.39600 -45.30603 6503 ft 146 kts 282°
2026-05-07 22:33 -22.39375 -45.31673 6503 ft 146 kts 282°
2026-05-07 22:33 -22.39149 -45.32743 6503 ft 146 kts 282°
2026-05-07 22:33 -22.38923 -45.33816 6503 ft 146 kts 282°
2026-05-07 22:34 -22.38698 -45.34887 6503 ft 146 kts 282°
2026-05-07 22:34 -22.38473 -45.35956 6504 ft 146 kts 282°
2026-05-07 22:34 -22.38247 -45.37026 6502 ft 146 kts 282°
2026-05-07 22:34 -22.38022 -45.38095 6505 ft 146 kts 282°
2026-05-07 22:35 -22.37796 -45.39165 6503 ft 146 kts 282°
2026-05-07 22:35 -22.37569 -45.40236 6504 ft 146 kts 282°
2026-05-07 22:35 -22.37341 -45.41309 6505 ft 146 kts 282°
2026-05-07 22:35 -22.37114 -45.42379 6503 ft 146 kts 282°
2026-05-07 22:36 -22.36898 -45.43447 6504 ft 147 kts 281°
2026-05-07 22:36 -22.36713 -45.44494 6196 ft 135 kts 279°
2026-05-07 22:36 -22.36541 -45.45458 5927 ft 130 kts 280°
2026-05-07 22:36 -22.36370 -45.46417 5646 ft 130 kts 280°
2026-05-07 22:37 -22.36195 -45.47375 5530 ft 132 kts 281°
2026-05-07 22:37 -22.35999 -45.48427 5511 ft 147 kts 281°
2026-05-07 22:37 -22.35799 -45.49520 5501 ft 148 kts 281°
2026-05-07 22:37 -22.35598 -45.50608 5500 ft 148 kts 280°
2026-05-07 22:38 -22.35397 -45.51701 5499 ft 148 kts 280°
2026-05-07 22:38 -22.35196 -45.52794 5500 ft 148 kts 280°
2026-05-07 22:38 -22.34996 -45.53881 5501 ft 148 kts 280°
2026-05-07 22:38 -22.34796 -45.54974 5500 ft 148 kts 280°
2026-05-07 22:39 -22.34596 -45.56066 5501 ft 148 kts 280°
2026-05-07 22:39 -22.34396 -45.57159 5500 ft 148 kts 280°
2026-05-07 22:39 -22.34197 -45.58250 5500 ft 148 kts 280°
2026-05-07 22:39 -22.33997 -45.59337 5500 ft 148 kts 280°
2026-05-07 22:40 -22.33797 -45.60430 5499 ft 148 kts 280°
2026-05-07 22:40 -22.33597 -45.61520 5499 ft 148 kts 280°
2026-05-07 22:40 -22.33397 -45.62613 5501 ft 148 kts 280°
2026-05-07 22:40 -22.33196 -45.63699 5500 ft 148 kts 280°
2026-05-07 22:41 -22.32995 -45.64795 5499 ft 148 kts 280°
2026-05-07 22:41 -22.32794 -45.65887 5499 ft 148 kts 280°
2026-05-07 22:41 -22.32593 -45.66978 5501 ft 148 kts 280°
2026-05-07 22:41 -22.32391 -45.68070 5500 ft 148 kts 280°
2026-05-07 22:42 -22.32190 -45.69161 5499 ft 148 kts 280°
2026-05-07 22:42 -22.31989 -45.70252 5500 ft 148 kts 280°
2026-05-07 22:42 -22.31787 -45.71346 5499 ft 149 kts 280°
2026-05-07 22:42 -22.31583 -45.72439 5500 ft 149 kts 280°
2026-05-07 22:43 -22.31379 -45.73531 5501 ft 148 kts 280°
2026-05-07 22:43 -22.31176 -45.74625 5500 ft 149 kts 280°
2026-05-07 22:43 -22.30973 -45.75715 5499 ft 148 kts 280°
2026-05-07 22:43 -22.30769 -45.76809 5500 ft 149 kts 280°
2026-05-07 22:44 -22.30565 -45.77904 5498 ft 149 kts 280°
2026-05-07 22:44 -22.30361 -45.78997 5498 ft 149 kts 280°
2026-05-07 22:44 -22.30156 -45.80094 5499 ft 149 kts 280°
2026-05-07 22:44 -22.29952 -45.81189 5501 ft 149 kts 280°
2026-05-07 22:45 -22.29747 -45.82283 5497 ft 149 kts 280°
2026-05-07 22:45 -22.29543 -45.83376 5500 ft 149 kts 280°
2026-05-07 22:45 -22.29338 -45.84470 5501 ft 149 kts 280°
2026-05-07 22:45 -22.29133 -45.85565 5501 ft 149 kts 280°
2026-05-07 22:46 -22.28929 -45.86659 5499 ft 149 kts 280°
2026-05-07 22:46 -22.28713 -45.87751 5497 ft 149 kts 283°
2026-05-07 22:46 -22.28383 -45.88800 5501 ft 149 kts 289°
2026-05-07 22:46 -22.28001 -45.89842 5500 ft 149 kts 292°
2026-05-07 22:47 -22.27574 -45.90855 5501 ft 149 kts 292°
2026-05-07 22:47 -22.27180 -45.91888 5500 ft 149 kts 291°
2026-05-07 22:47 -22.26745 -45.92901 5496 ft 148 kts 298°
2026-05-07 22:47 -22.26171 -45.93823 5502 ft 149 kts 304°
2026-05-07 22:48 -22.25571 -45.94736 5499 ft 149 kts 304°
2026-05-07 22:48 -22.24970 -45.95646 5498 ft 149 kts 304°
2026-05-07 22:48 -22.24362 -45.96558 5499 ft 149 kts 304°
2026-05-07 22:48 -22.23759 -45.97465 5498 ft 149 kts 304°
2026-05-07 22:49 -22.23153 -45.98376 5499 ft 149 kts 304°
2026-05-07 22:49 -22.22547 -45.99286 5499 ft 149 kts 304°
2026-05-07 22:49 -22.22143 -45.99892 5498 ft 149 kts 304°
2026-05-07 22:49 -22.21338 -46.01101 5499 ft 149 kts 304°
2026-05-07 22:50 -22.20732 -46.02010 5498 ft 149 kts 304°
2026-05-07 22:50 -22.20126 -46.02920 5498 ft 149 kts 304°
2026-05-07 22:50 -22.19519 -46.03832 5499 ft 149 kts 304°
2026-05-07 22:50 -22.18912 -46.04741 5498 ft 149 kts 304°
2026-05-07 22:51 -22.18308 -46.05648 5499 ft 149 kts 304°
2026-05-07 22:51 -22.17702 -46.06558 5499 ft 149 kts 304°
2026-05-07 22:51 -22.17093 -46.07471 5498 ft 149 kts 304°
2026-05-07 22:51 -22.16488 -46.08378 5499 ft 149 kts 304°
2026-05-07 22:52 -22.15884 -46.09286 5498 ft 149 kts 304°
2026-05-07 22:52 -22.15277 -46.10196 5499 ft 149 kts 304°
2026-05-07 22:52 -22.14670 -46.11107 5499 ft 150 kts 304°
2026-05-07 22:52 -22.14266 -46.11712 5499 ft 150 kts 304°
2026-05-07 22:53 -22.13454 -46.12928 5498 ft 150 kts 304°
2026-05-07 22:53 -22.13051 -46.13532 5499 ft 150 kts 304°
2026-05-07 22:53 -22.12238 -46.14749 5497 ft 150 kts 304°
2026-05-07 22:53 -22.11833 -46.15355 5498 ft 150 kts 304°
2026-05-07 22:54 -22.11227 -46.16261 5499 ft 150 kts 304°
2026-05-07 22:54 -22.10618 -46.17172 5497 ft 150 kts 304°
2026-05-07 22:54 -22.09805 -46.18386 5497 ft 150 kts 304°
2026-05-07 22:54 -22.09399 -46.18992 5498 ft 150 kts 304°
2026-05-07 22:55 -22.08582 -46.20212 5498 ft 150 kts 304°
2026-05-07 22:55 -22.07976 -46.21118 5497 ft 150 kts 304°
2026-05-07 22:55 -22.07567 -46.21729 5497 ft 150 kts 304°
2026-05-07 22:55 -22.06755 -46.22942 5498 ft 150 kts 304°
2026-05-07 22:56 -22.06349 -46.23547 5497 ft 150 kts 304°
2026-05-07 22:56 -22.05740 -46.24458 5498 ft 150 kts 304°
2026-05-07 22:56 -22.04927 -46.25673 5498 ft 150 kts 304°
2026-05-07 22:56 -22.04519 -46.26282 5497 ft 150 kts 304°
2026-05-07 22:57 -22.03908 -46.27195 5498 ft 150 kts 304°
2026-05-07 22:57 -22.03298 -46.28105 5497 ft 150 kts 304°
2026-05-07 22:57 -22.02691 -46.29012 5497 ft 150 kts 304°
2026-05-07 22:57 -22.02076 -46.29930 5497 ft 150 kts 304°
2026-05-07 22:58 -22.01468 -46.30837 5497 ft 150 kts 304°
2026-05-07 22:58 -22.00856 -46.31751 5498 ft 150 kts 304°
2026-05-07 22:58 -22.00248 -46.32658 5498 ft 150 kts 304°
2026-05-07 22:58 -21.99637 -46.33571 5498 ft 150 kts 304°
2026-05-07 22:59 -21.99024 -46.34482 5498 ft 150 kts 305°
2026-05-07 22:59 -21.98322 -46.35310 5498 ft 149 kts 316°
2026-05-07 22:59 -21.97541 -46.36051 5498 ft 150 kts 317°
2026-05-07 22:59 -21.96782 -46.36773 5654 ft 131 kts 318°
2026-05-07 23:00 -21.96088 -46.37448 6054 ft 136 kts 317°
2026-05-07 23:00 -21.95468 -46.38160 6131 ft 124 kts 303°
2026-05-07 23:00 -21.95002 -46.38865 6023 ft 107 kts 306°
2026-05-07 23:00 -21.94567 -46.39451 5990 ft 96 kts 306°
2026-05-07 23:01 -21.94170 -46.40000 5947 ft 90 kts 307°
2026-05-07 23:01 -21.93801 -46.40517 5914 ft 85 kts 306°
2026-05-07 23:01 -21.93456 -46.41013 5914 ft 81 kts 306°
2026-05-07 23:01 -21.93120 -46.41497 6041 ft 81 kts 306°
2026-05-07 23:02 -21.92779 -46.41990 6141 ft 83 kts 306°
2026-05-07 23:02 -21.92430 -46.42490 6234 ft 84 kts 306°
2026-05-07 23:02 -21.92091 -46.42976 5971 ft 76 kts 306°
2026-05-07 23:02 -21.91809 -46.43374 5721 ft 59 kts 306°
2026-05-07 23:03 -21.91588 -46.43692 5472 ft 47 kts 306°
2026-05-07 23:03 -21.91415 -46.43943 5238 ft 37 kts 306°
2026-05-07 23:03 -21.91281 -46.44137 4981 ft 28 kts 306°
2026-05-07 23:03 -21.91182 -46.44282 4705 ft 20 kts 306°
2026-05-07 23:04 -21.91115 -46.44382 4648 ft 12 kts 306°
2026-05-07 23:04 -21.91075 -46.44441 5046 ft 9 kts 306°
2026-05-07 23:04 -21.91050 -46.44478 5242 ft 9 kts 306°
2026-05-07 23:04 -21.91028 -46.44508 5311 ft 7 kts 306°
2026-05-07 23:05 -21.91018 -46.44523 5345 ft 6 kts 306°
2026-05-07 23:05 -21.90999 -46.44548 5412 ft 3 kts 304°
2026-05-07 23:06 -21.90992 -46.44554 5441 ft 0 kts 302°
2026-05-07 23:06 -21.90995 -46.44546 5434 ft 2 kts 301°
2026-05-07 23:06 -21.90961 -46.44605 5847 ft 26 kts 301°
2026-05-07 23:06 -21.90794 -46.44869 6218 ft 59 kts 310°
2026-05-07 23:07 -21.90680 -46.44983 6267 ft 75 kts 317°
2026-05-07 23:07 -21.89894 -46.45987 6015 ft 129 kts 305°
2026-05-07 23:07 -21.89376 -46.46741 5671 ft 123 kts 301°
2026-05-07 23:07 -21.88925 -46.47509 5326 ft 122 kts 300°
2026-05-07 23:08 -21.88479 -46.48284 4988 ft 121 kts 299°
2026-05-07 23:08 -21.88027 -46.49067 4844 ft 129 kts 301°
2026-05-07 23:08 -21.87499 -46.49975 4869 ft 151 kts 301°
2026-05-07 23:08 -21.86946 -46.50934 4879 ft 151 kts 301°
2026-05-07 23:09 -21.86390 -46.51896 4890 ft 152 kts 301°
2026-05-07 23:09 -21.85840 -46.52845 4902 ft 151 kts 301°
2026-05-07 23:09 -21.85466 -46.53469 4985 ft 141 kts 303°
2026-05-07 23:10 -21.84985 -46.54248 5365 ft 121 kts 300°
2026-05-07 23:10 -21.84607 -46.54933 5048 ft 88 kts 293°
2026-05-07 23:10 -21.84340 -46.55490 4666 ft 80 kts 295°
2026-05-07 23:10 -21.84077 -46.56033 4342 ft 82 kts 292°
2026-05-07 23:11 -21.83882 -46.56471 4173 ft 33 kts 295°
2026-05-07 23:11 -21.83881 -46.56515 4139 ft 0 kts 248°